Starlink 31680

operational
NORAD ID: 59380 Int'l Des: 2024-062 Owner: SPXS Country: US Constellation: starlink
LEOCIRCULAR

About Starlink 31680

Description loading...

Live Position

Loading 3D Globe...

Upcoming Passes

Altitude History

Altitude vs Time

uPlot chart will show altitude changes over time

Two-Line Element Set

1 59380U 24062G 25303.26987217 -.00000108 00000-0 84759-5 0 9992
2 59380 53.1590 144.2854 0001220 94.2724 265.8417 15.30189589 89628
Epoch: Oct 30, 2025 • Age: 15 hours

Current Status

Altitude 477.4 km
Velocity 7.63 km/s
Sub-Earth Point -7.08°S, 33.83°W
Launch Date Apr 2, 2024
Age 1.5 years
Type internet

Technical Details

Classification Payload
Mass 730.00 kg
Dry Mass 700.00 kg
Total Mass 730.00 kg
Length 0.30 m
Diameter 4.10 m
Span 29.00 m
Shape Box + pan
Manufacturer SPXS
Bus Type Starlink V2M
Phase Status In Orbit
Owner/State SPXS/US

Large Constellations

Loading constellations...